Other Public Products
Issued by NWS Charleston, SC

Current Version | Previous Version | Graphics & Text | Print | Product List | Glossary On
Versions: 1 2 3 4 5 6 7 8 9 10 11 12 13 14 15 16 17 18 19 20 21 22 23 24 25 26 27 28 29 30 31 32 33 34 35 36 37 38 39 40 41 42 43 44 45 46 47 48 49 50
000
FPUS82 KCHS 240812
OPUCHS

TEST...KCHS/KSAV Gateway Observations...TEST
National Weather Service Charleston SC
400 AM EDT FRI MAR 24 2017

NOTE: "fair" indicates few or no clouds below 12,000 feet with no
significant weather and/or obstructions to visibility.

SCZ050-WAZ558-NCZ071-TXZ119-213-PAZ071-DCZ001-FLZ074-172-MI076-
NYZ176-178-MAZ016-IL014-TNZ027-NJZ106-GAZ044-MD014-240900-

...Gateway Observations for Charleston International...

CITY           SKY/WX    TMP DP  RH WIND       PRES   REMARKS
Chas Airport   PTCLDY    48  44  86 NE7       30.45F
Seattle        LGT RAIN  45  44  97 NE5       29.85F
Charlotte      PTCLDY    43  31  62 S7        30.49F
Dallas DFW     MOCLDY    69  59  70 S17G29    29.88R
Dallas Love    CLOUDY    69  58  67 S25G36    29.84F
Philladelphia  CLOUDY    33  25  72 SW6       30.50F WCI  28
Wash National  PTCLDY    37  25  61 S13       30.50F WCI  29
Baltimore      PTCLDY    31  19  61 CALM      30.49F
Miami          LGT RAIN  69  65  86 E17G24    30.22S FOG
Detroit        CLOUDY    43  39  86 S9        30.06F
Newark         MOCLDY    32  16  51 S6        30.49F WCI  26
Laguardia      PTCLDY    39  15  37 SW9       30.49F WCI  33
J F K          CLOUDY    34  23  64 S10       30.50F WCI  26
Boston Logan   CLOUDY    30  13  49 SW5       30.52S WCI  25
Ft. Lauderdale MOCLDY    71  61  70 E15G28    30.21F
Chicago O`Hare MOCLDY    47  36  65 S13       29.95F
Chicago Midway MOCLDY    48  36  63 VRB5      29.98R
Houston Bush   MOCLDY    71  63  75 S18G25    30.00F
Houston Hobby  PTCLDY    69  65  86 SE12      30.00F
Nashville      CLEAR     59  45  59 S15G21    30.23F
Atlanta        CLOUDY    58  45  62 SE10      30.38F

$$

GAZ044-118-TXZ119-213-NCZ071-DCZ001-MDZ014-506-PAZ021-071-NJZ106-
NYZ176-178-MAZ106-OHZ011-021-055-MIZ076-KYZ091-ILZ014-INZ047-
MNZ060-ONZ431-240900-

...Gateway Observations for Savannah International...

CITY           SKY/WX    TMP DP  RH WIND       PRES   REMARKS
Savannah Arpt  PTCLDY    48  42  80 N5        30.44S
Atlanta        CLOUDY    58  45  62 SE10      30.38F
Charlotte      PTCLDY    43  31  62 S7        30.49F
Dallas DFW     MOCLDY    69  59  70 S17G29    29.88R
Houston Bush   MOCLDY    71  63  75 S18G25    30.00F
Wash National  PTCLDY    37  25  61 S13       30.50F WCI  29
Wash Dulles    CLOUDY    34  19  54 S7        30.47F WCI  28
Baltimore      PTCLDY    31  19  61 CALM      30.49F
Philadelphia   CLOUDY    33  25  72 SW6       30.50F WCI  28
Newark         MOCLDY    32  16  51 S6        30.49F WCI  26
Laguardia      PTCLDY    39  15  37 SW9       30.49F WCI  33
J F K          CLOUDY    34  23  64 S10       30.50F WCI  26
Boston         CLOUDY    30  13  49 SW5       30.52S WCI  25
Pittsburg      CLOUDY    43  18  36 S7        30.20F
Akron          LGT RAIN  40  30  67 S9        30.18F WCI  34
Cleveland      LGT RAIN  43  34  70 S14G23    30.17F
Cincinnati     CLOUDY    53  38  56 S12       30.14F
Columbus       CLOUDY    50  31  48 S9        30.15F
Detroit        CLOUDY    43  39  86 S9        30.06F
Chicago O`Hare MOCLDY    47  36  65 S13       29.95F
Minneapolis    CLOUDY    39  36  89 SE7       29.85S FOG     WCI  34
Indianapolis   PTCLDY    52  39  61 S12       30.04F
Toronto Canada LGT RAIN  36  23  60 E3        30.13F

$$




USA.gov is the U.S. government's official web portal to all federal, state and local government web resources and services.